Vorticity
nan nan nan nan nan nan nan nan nan nan nan nan nan nan nan nan nan nan nan nan nan nan nan nan nan nan nan nan nan nan nan nan nan nan nan nan nan nan nan nan nan nan nan nan nan nan nan nan nan
nan -1 2 7 6 5 6 9 11 9 7 6 5 5 4 7 14 12 9 11 4 4 6 9 9 6 6 6 6 6 6 5 5 5 4 4 3 5 6 5 5 6 6 6 5 4 4 3 nan
nan 1 4 8 6 7 8 8 10 7 6 5 6 6 6 10 8 6 10 6 5 5 8 11 7 6 5 6 7 6 6 6 5 6 5 5 5 6 5 5 4 4 5 5 4 4 4 4 nan
nan 8 6 5 6 11 13 11 4 -2 5 12 6 4 9 8 9 14 9 5 5 5 8 9 6 4 6 6 6 7 6 6 6 6 6 6 5 5 5 5 5 4 3 5 5 5 4 4 nan
nan 6 8 7 9 11 12 10 2 5 8 8 9 7 4 12 18 11 5 4 3 5 8 8 8 6 6 6 6 7 7 6 6 6 6 5 6 5 4 4 5 4 4 6 7 5 4 4 nan
nan 7 5 5 11 8 10 7 4 8 11 6 8 4 10 14 6 5 5 5 5 5 7 10 9 7 6 6 6 6 6 6 7 6 6 6 5 5 4 5 5 5 5 6 6 6 5 3 nan
nan 6 5 9 8 8 9 6 8 6 1 5 2 3 11 6 5 6 6 7 7 5 5 7 9 9 6 4 6 6 6 6 6 6 6 5 5 5 5 5 5 5 4 5 5 5 4 5 nan
nan 5 6 9 4 11 5 7 7 0 5 9 4 7 10 10 7 5 6 6 6 5 6 7 7 6 7 9 8 5 6 6 5 5 6 6 5 4 4 3 6 4 3 4 4 5 5 5 nan
nan 7 6 6 6 8 5 7 6 5 8 4 11 14 14 12 5 5 3 4 7 7 6 6 7 7 7 8 9 8 5 5 4 4 3 1 4 8 7 5 5 4 3 4 4 5 4 5 nan
nan 7 8 4 2 1 11 14 6 13 1 4 14 14 12 7 4 4 4 5 5 6 5 6 6 6 6 7 6 5 4 4 5 5 5 5 7 7 7 7 5 5 4 5 6 5 6 7 nan
nan 8 6 10 8 3 11 8 10 6 6 13 8 5 4 2 3 4 7 7 6 4 5 6 6 6 5 6 6 6 8 7 7 7 5 5 5 6 6 6 6 7 8 6 7 7 8 7 nan
nan 8 5 9 12 8 5 5 11 0 15 16 10 7 5 3 3 4 6 6 8 7 5 5 6 6 6 6 7 7 6 7 7 8 6 5 6 7 7 7 7 6 7 7 7 8 8 8 nan
nan 8 6 6 5 6 7 15 12 12 15 11 9 6 4 3 4 7 6 5 6 8 8 7 4 5 8 6 6 7 7 7 7 8 6 6 8 7 6 7 7 7 7 7 6 6 7 9 nan
nan 8 5 4 2 9 20 18 11 17 10 9 6 4 4 5 4 5 7 8 6 6 7 9 7 6 6 6 7 7 8 8 8 7 8 7 7 7 7 7 7 7 7 6 7 7 8 8 nan
nan 5 3 3 7 13 14 6 14 14 7 5 4 5 5 6 7 8 6 6 7 6 8 8 7 6 7 6 5 7 8 8 7 9 9 8 7 7 6 7 7 8 6 8 9 8 8 9 nan
nan 6 10 3 4 9 7 12 16 13 7 4 6 5 5 8 7 7 9 8 6 9 9 6 7 8 6 5 6 7 7 7 8 8 9 9 7 7 6 6 7 8 8 8 8 8 8 8 nan
nan 8 8 13 10 5 6 9 15 9 7 5 5 6 6 6 8 11 11 9 8 8 8 7 7 8 7 7 8 8 8 7 8 8 9 9 8 7 7 6 8 8 8 7 7 8 8 7 nan
nan 8 7 8 11 10 3 12 13 8 7 5 5 5 6 9 9 9 9 8 8 8 8 6 6 6 7 7 7 9 9 9 9 8 8 9 8 8 7 8 9 7 7 8 8 9 9 8 nan
nan 6 5 8 10 17 6 7 13 7 4 8 6 7 7 9 11 9 9 8 6 7 8 8 5 6 5 6 8 9 8 8 8 10 10 8 7 8 7 7 9 8 7 6 7 8 8 8 nan
nan 9 9 8 13 10 15 13 15 9 7 7 4 4 8 6 10 11 9 8 7 5 4 7 6 5 6 6 7 9 10 10 10 9 9 9 8 7 6 7 9 7 7 7 8 8 8 8 nan
nan 11 10 10 17 10 6 16 17 7 9 10 7 6 10 10 6 8 8 7 6 6 6 7 8 5 6 6 5 7 7 10 10 9 10 10 9 8 7 7 8 8 8 8 8 8 8 8 nan
nan 9 5 8 12 17 7 9 11 20 12 8 5 6 8 10 8 8 7 7 6 6 6 7 8 6 6 7 6 7 7 7 8 9 9 10 9 8 8 8 8 8 7 9 8 8 8 8 nan
nan 5 8 11 11 9 6 12 13 15 12 11 8 6 7 10 10 8 7 8 6 6 7 7 7 6 9 8 5 5 7 7 9 10 10 8 9 10 9 8 9 9 8 10 9 8 8 8 nan
nan 10 12 13 12 9 14 6 7 9 13 11 10 9 7 9 10 9 8 7 7 7 8 8 7 5 8 9 7 8 6 6 7 8 8 9 9 10 9 10 9 9 8 9 9 8 8 7 nan
nan 13 10 8 13 7 5 11 11 6 10 17 14 10 8 8 10 9 8 7 8 8 7 7 8 6 6 9 7 7 8 8 8 7 7 6 7 9 11 10 7 8 9 8 8 9 8 8 nan
nan 11 6 7 6 7 10 11 12 9 9 15 17 17 10 6 9 10 8 7 8 8 6 7 8 7 6 7 7 7 8 8 9 9 8 8 8 8 10 9 8 8 8 8 9 8 8 8 nan
nan 11 10 9 6 11 10 5 13 13 10 13 17 16 12 9 10 9 7 8 8 9 8 7 6 7 7 5 6 7 8 9 9 9 7 8 8 10 10 9 8 9 9 9 7 7 8 8 nan
nan 6 7 14 14 7 10 13 6 3 10 13 19 18 14 11 9 9 9 9 8 9 10 8 8 8 6 7 6 6 7 8 10 10 9 9 8 9 9 9 9 8 9 10 8 7 9 8 nan
nan 13 14 15 7 7 10 13 7 6 13 16 18 20 16 13 11 10 9 10 10 8 9 8 8 8 7 8 8 6 8 7 8 8 10 10 9 9 8 8 9 9 8 8 8 8 9 8 nan
nan nan nan nan nan nan nan nan nan nan nan nan nan nan nan nan nan nan nan nan nan nan nan nan nan nan nan nan nan nan nan nan nan nan nan nan nan nan nan nan nan nan nan nan nan nan nan nan nan
CAPE
2 50 190 357 202 0 67 50 102 96 103 121 42 50 359 662 143 7 279 697 1234 1263 1120 1453 2321 2014 1408 873 1288 1711 1524 1439 1142 1089 1295 1336 891 1430 2040 2177 2164 1843 1776 1958 2087 1884 1813 1731 1683
3 108 243 872 20 8 52 10 86 140 171 128 184 365 467 605 640 458 572 1042 1222 1299 1169 1282 2049 2126 1736 1709 1216 1960 1861 1555 2053 1350 1569 1546 1326 2291 2355 2292 1967 2035 2145 2073 1935 1776 1827 1545 1310
2 114 79 117 161 19 32 22 157 114 16 1 142 318 338 613 520 460 589 1039 1080 1100 1178 1227 1784 1821 1755 1783 1608 2041 2310 1759 1939 2178 1716 1637 2010 2271 2278 2276 2451 2188 1941 1737 1670 1654 1785 1567 1244
254 97 236 115 92 57 6 0 33 37 22 68 138 288 360 519 530 575 659 791 878 971 1135 1789 1595 1203 1753 1878 1702 1760 2277 2171 2180 1726 2253 2350 2110 2375 2457 2093 1998 1844 1972 2004 1759 1437 1449 1366 1397
478 56 85 113 98 51 6 0 0 3 44 60 77 188 192 321 489 471 407 577 704 1009 1429 1466 1868 1868 1510 1815 1840 1864 2054 2253 2252 2265 2291 2471 2299 2040 1824 1958 1883 2211 1926 1382 1081 1180 1251 1301 1223
16 71 122 82 82 26 0 0 0 0 45 86 85 77 107 281 321 356 458 463 775 968 1080 1168 1640 1703 1611 1870 1885 1960 2002 2130 2207 2239 2377 2338 2203 2291 2052 2224 2176 2006 1740 1250 985 1037 1056 948 1075
44 113 33 63 39 16 2 1 0 0 0 15 14 70 158 295 339 355 407 515 748 1015 987 1116 1090 1385 1662 1895 1799 2036 1986 1889 2189 2266 2398 2414 2320 2264 2145 2295 2143 2068 1736 1782 1564 1290 1269 1106 1188
2 19 1 44 143 45 9 7 0 0 0 0 0 26 65 215 335 258 382 505 712 814 867 935 859 940 1107 1420 2050 2212 2260 1977 1900 1913 2136 2278 2278 2064 2045 2655 2549 1927 1876 1715 1651 1679 1731 1799 1797
25 5 0 4 151 118 6 0 0 0 0 0 0 0 27 142 173 146 228 332 441 672 692 678 712 706 812 1232 1416 1860 1830 1846 2101 1814 2047 2244 1225 1290 1740 2050 1990 1775 1781 1744 1642 1500 1550 1693 1570
18 0 1 4 61 158 82 6 0 0 0 0 0 0 52 30 67 66 112 154 296 399 531 464 558 624 912 1284 1244 942 1114 1114 897 948 1069 681 640 839 1189 1796 1905 1829 1755 1673 1624 1710 1872 1824 1034
1 5 20 17 19 31 112 2 0 0 0 0 0 32 30 16 30 73 43 56 105 253 496 312 391 514 771 880 681 396 381 277 328 301 255 221 326 817 1076 1132 1370 1001 1220 759 482 500 492 717 671
185 6 0 0 0 87 279 413 0 0 0 0 0 0 0 0 1 9 0 15 40 170 222 211 253 362 238 553 362 234 193 191 187 202 129 201 328 482 467 667 663 516 325 347 154 121 10 88 292
205 64 69 89 281 409 619 726 0 0 0 0 0 0 0 0 0 0 0 0 27 51 148 213 229 105 26 340 144 175 246 455 269 173 199 252 328 357 175 72 45 49 39 80 182 294 288 253 323
216 241 223 205 244 508 560 16 1 0 0 0 0 0 0 0 0 0 0 0 0 0 3 21 130 6 102 207 77 105 127 390 108 67 149 251 215 276 77 0 14 33 43 45 163 310 382 386 766
325 450 289 324 269 553 405 4 0 0 0 0 0 0 0 0 0 0 0 0 0 0 0 0 5 23 53 6 27 35 51 139 175 156 183 213 205 215 27 0 61 122 41 35 244 390 438 469 480
121 104 151 30 83 287 497 0 0 0 0 0 0 0 0 0 0 0 0 0 0 0 0 0 29 24 11 0 0 8 0 38 188 181 271 335 355 365 149 226 287 128 124 183 91 79 134 375 498
0 35 42 77 356 21 447 78 0 0 0 0 0 0 0 0 0 0 0 0 0 0 0 0 0 0 0 0 0 0 11 11 171 136 309 365 374 446 348 405 502 90 21 43 131 413 556 644 180
0 0 11 150 89 56 236 222 0 0 0 0 0 0 0 0 0 0 0 0 0 24 9 0 1 57 6 25 104 14 37 51 232 278 334 341 353 562 557 353 89 6 13 186 695 1170 423 416 403
0 0 0 0 112 73 58 53 25 0 0 0 0 0 0 0 0 0 0 0 0 4 10 100 103 67 49 268 324 209 203 211 310 270 412 312 317 627 657 831 648 22 134 353 1188 130 653 692 601
0 0 0 0 0 85 63 51 128 1 0 0 0 0 0 0 0 0 0 0 0 0 0 25 39 0 160 378 205 493 370 402 417 328 312 345 362 604 738 1097 557 275 460 625 1067 489 525 688 648
0 0 0 0 0 113 53 59 217 60 0 0 0 0 0 0 0 0 0 0 0 0 0 0 0 0 101 240 219 252 418 399 375 307 281 380 409 609 682 1077 704 423 528 907 599 468 437 383 308
0 0 0 0 0 0 65 19 19 207 1 0 0 0 0 0 0 0 0 0 0 0 0 0 0 0 3 143 327 574 544 663 538 451 354 331 522 609 700 1027 928 535 1182 992 474 588 727 286 89
0 0 0 0 0 0 0 0 0 111 159 0 0 0 0 0 0 0 0 0 0 0 0 6 0 0 0 97 337 490 406 501 305 339 421 336 518 610 813 877 1164 880 1146 1096 703 916 675 565 823
0 0 0 0 0 0 0 0 0 6 289 147 0 0 0 0 0 0 0 0 0 0 0 47 11 17 0 52 137 403 428 402 322 311 521 543 637 775 718 945 1240 1125 685 911 993 800 547 451 816
0 0 0 0 0 0 0 0 0 0 0 77 181 0 0 0 0 0 0 0 0 0 0 80 61 55 18 352 260 267 414 220 325 310 562 542 658 630 630 642 708 547 738 632 639 722 668 627 708
0 0 0 0 0 0 0 0 0 0 0 0 208 50 0 0 0 0 0 0 0 0 0 76 125 89 36 144 557 597 489 280 265 250 521 564 772 839 604 392 307 366 748 937 270 277 379 493 709
0 0 0 0 0 0 0 0 0 0 0 0 205 233 17 0 0 0 0 0 0 0 0 34 134 100 22 31 168 463 571 511 337 276 292 452 465 549 236 445 492 376 612 1020 824 319 585 316 175
0 0 0 0 0 0 0 0 0 0 0 0 0 384 60 6 0 0 0 0 0 0 0 44 93 73 34 29 61 378 549 879 874 544 255 253 239 188 335 390 689 796 768 979 1134 703 768 653 406
0 0 0 0 0 0 0 0 0 0 0 0 3 300 269 90 0 0 0 0 0 0 0 56 185 100 101 150 52 172 643 934 1102 1210 610 331 280 358 355 438 928 1129 1135 1280 1365 1566 1476 1302 1257
0 0 0 0 0 0 0 0 0 47 369 57 228 492 431 271 2 0 0 0 0 0 5 98 238 325 237 271 191 104 578 993 1184 962 1301 1203 759 698 873 971 1041 1169 1244 1332 1506 1563 1941 1802 1667